Location: Unspecified
(0.0000°N, 0.0000°E)
Time: 15:18:47
(UTC+00:00)

Hubble Space Telescope - Pass Details

Date: 13 February 2018
Orbit: 537 x 541 km, 28.5° (Epoch: 24 February)

Event Time Altitude Azimuth Distance (km) Brightness Sun altitude
Exits shadow 05:24:21 17° 266° (W) 1,401 2.3 -12.1°
Maximum altitude 05:27:10 40° 330° (NNW) 790 1.3 -11.4°
Drops below altitude 10° 05:31:04 10° 41° (NE) 1,782 3.8 -10.5°
Sets 05:33:25 0° 48° (NE) 2,672 4.9 -9.9°
